Regional Weather Roundup
Issued by NWS

Home | Current Version | Previous Version | Text Only | Print | Product List | Glossary Off
Versions: 1 2 3 4 5 6 7 8 9 10 11 12 13 14 15 16 17 18 19 20 21 22 23 24 25 26 27 28 29 30 31 32 33 34 35 36 37 38 39 40 41 42 43 44 45 46 47 48 49 50

000
ASUS43 KIND 101809
RWRIN

WEATHER ROUNDUP FOR INDIANA
NATIONAL WEATHER SERVICE INDIANAPOLIS IN
100 PM EST SAT DEC 10 2016

NOTE: "FAIR" INDICATES FEW OR NO CLOUDS BELOW 12,000 FEET WITH NO
SIGNIFICANT WEATHER AND/OR OBSTRUCTIONS TO VISIBILITY.

* - STATION DOES NOT REPORT WEATHER SUCH AS PRECIPITATION OR FOG.

+ - STATION NOT QUALITY CONTROLLED BY THE NATIONAL WEATHER SERVICE.
    USE DATA WITH CAUTION...ESPECIALLY DEWPOINT AND RELATIVE
    HUMIDITY OBSERVATIONS.

INZ001>003-010>013-019-020-101900-
NORTHWEST INDIANA

CITY           SKY/WX    TMP DP  RH WIND       PRES   REMARKS
GARY /AIRPORT/ CLOUDY    27  12  54 W12       30.50F WCI  16
KNOX *+        MOSUNNY   27  -6  24 W10       30.48F WCI  17
LA PORTE +     MOSUNNY   24  13  62 W7        30.48F WCI  16
6HR MIN TEMP:  19; 6HR MAX TEMP:  24;

MICHIGAN CITY+ CLOUDY    27  14  59 W8        30.48F WCI  18
MONTICELLO +   MOSUNNY   27  11  50 W7        30.50F WCI  19
6HR MIN TEMP:  22; 6HR MAX TEMP:  27;

RENSSELAER +     N/A     28  18  64 W6        30.49F WCI  22
VALPARAISO     SUNNY     25  14  63 SW10      30.48F WCI  15
6HR MIN TEMP:  20; 6HR MAX TEMP:  26;


$$

LMZ046-743>745-101900-
SOUTHERN LAKE MICHIGAN

STATION/POSITION TIME  TEMP    WIND        PRES    WAVE
                       AIR SEA DIR/SP/G            HT
                 (UTC) (F)     (DEG/KT/KT) (MB)    (FT)

$$

INZ004-005-014>016-021>024-101900-
NORTH CENTRAL INDIANA

CITY           SKY/WX    TMP DP  RH WIND       PRES   REMARKS
ELKHART        FLURRIES  25  16  68 W8        30.46F WCI  16
GOSHEN         CLOUDY    26  13  57 W12       30.46F WCI  16
6HR MIN TEMP:  20; 6HR MAX TEMP:  26;

LOGANSPORT +   PTSUNNY   28  16  59 W8        30.50F WCI  20
PERU/GRISSOM   PTSUNNY   26  15  63 W9        30.47F WCI  17
6HR MIN TEMP:  23; 6HR MAX TEMP:  26;

ROCHESTER +    PTSUNNY   28  19  69 W8        30.49F WCI  20
SOUTH BEND     FLURRIES  22  16  78 SW8       30.47F WCI  12
6HR MIN TEMP:  18; 6HR MAX TEMP:  22; 6HR PCP: TRACE;

WARSAW +       CLOUDY    25  12  58 W12       30.47F WCI  14

$$

INZ006>009-017-018-025>027-101900-
NORTHEAST INDIANA

CITY           SKY/WX    TMP DP  RH WIND       PRES   REMARKS
ANGOLA *+      CLOUDY    25  18  74 W12       30.43F WCI  14
AUBURN +       MOSUNNY   27  14  59 W10       30.47F WCI  17
FORT WAYNE     FLURRIES  26  15  63 W12       30.48F WCI  16
6HR MIN TEMP:  20; 6HR MAX TEMP:  26; 6HR PCP: TRACE;

HUNTINGTON +   CLOUDY    26  14  62 SW7       30.48F WCI  18
6HR MIN TEMP:  19; 6HR MAX TEMP:  26;


$$

INZ028-029-035-036-043>045-051>053-101900-
WEST CENTRAL INDIANA

CITY           SKY/WX    TMP DP  RH WIND       PRES   REMARKS
CRAWFORDSVL +  CLOUDY    26  18  71 SW8       30.51F WCI  17
6HR MIN TEMP:  19; 6HR MAX TEMP:  26;

GREENCASTLE +  CLOUDY    28  19  69 SW7       30.51F WCI  21
LAFAYETTE      CLOUDY    27  16  63 SW6       30.51F WCI  20
6HR MIN TEMP:  21; 6HR MAX TEMP:  27;

TERRE HAUTE    CLOUDY    27  16  63 SW6       30.53F WCI  20
6HR MIN TEMP:  22; 6HR MAX TEMP:  27;


$$

INZ030>032-037>040-046>048-054>057-064-065-101900-
CENTRAL INDIANA

CITY           SKY/WX    TMP DP  RH WIND       PRES   REMARKS
ANDERSON       MOSUNNY   27  18  69 SW6       30.50F WCI  20
CP ATTERBURY + CLOUDY    30  18  59 SW5       30.52F WCI  25
COLUMBUS       CLOUDY    27  19  74 SW8       30.53F WCI  18
FISHERS *+     MOSUNNY   28  19  69 W5        30.51F WCI  23
FRANKFORT +    MOSUNNY   30  18  60 W8        30.51S WCI  23
6HR MIN TEMP:  24; 6HR MAX TEMP:  31;

GREENWOOD *+   MOSUNNY   28  17  64 W8        30.52F WCI  20
6HR MIN TEMP:  23; 6HR MAX TEMP:  28;

INDIANAPOLIS   CLOUDY    27  16  63 W8        30.50F WCI  19
6HR MIN TEMP:  21; 6HR MAX TEMP:  28;

-EAGLE CREEK   MOSUNNY   27  15  61 SW6       30.50F WCI  20
6HR MIN TEMP:  22; 6HR MAX TEMP:  28;

KOKOMO +       PTSUNNY   28  17  63 W10       30.49F WCI  19
6HR MIN TEMP:  23; 6HR MAX TEMP:  28;

MARION +       PTSUNNY   26  16  67 W12       30.49F WCI  15
MT COMFORT *+  MOSUNNY   27  16  63 W6        30.50F WCI  20
SHELBYVILLE    MOSUNNY   28  15  58 W9        30.51F WCI  19
6HR MIN TEMP:  23; 6HR MAX TEMP:  29;

ZIONSVILLE +   MOSUNNY   25  16  68 SW8       30.50F WCI  16
6HR MIN TEMP:  21; 6HR MAX TEMP:  26;


$$

INZ033-034-041-042-049-050-058-059-101900-
EAST CENTRAL INDIANA

CITY           SKY/WX    TMP DP  RH WIND       PRES   REMARKS
MUNCIE         PTSUNNY   27  17  66 W9        30.49F WCI  18
6HR MIN TEMP:  23; 6HR MAX TEMP:  27;


$$

INZ060-061-067>069-081>083-085>088-101900-
SOUTHWEST INDIANA

CITY           SKY/WX    TMP DP  RH WIND       PRES   REMARKS
EVANSVILLE     CLOUDY    33  14  45 CALM      30.55F
6HR MIN TEMP:  22; 6HR MAX TEMP:  33;

HUNTINGBURG *+ CLOUDY    31  19  61 CALM      30.55F
6HR MIN TEMP:  17; 6HR MAX TEMP:  31;

WASHINGTON +   CLOUDY    28  20  70 CALM      30.54F
6HR MIN TEMP:  23; 6HR MAX TEMP:  28;


$$

INZ062-063-066-070>080-084-089>092-101900-
SOUTH CENTRAL AND SOUTHEAST INDIANA

CITY           SKY/WX    TMP DP  RH WIND       PRES   REMARKS
BLOOMINGTON    CLOUDY    26  16  65 SW6       30.51F WCI  19
6HR MIN TEMP:  21; 6HR MAX TEMP:  27;

MADISON *+     CLOUDY    30  16  55 SW6       30.55F WCI  24
NORTH VERNON + CLOUDY    28  23  80 W7        30.55F WCI  21
SEYMOUR +      CLOUDY    30  18  59 SW5       30.54F WCI  25

$$




USA.gov is the U.S. government's official web portal to all federal, state and local government web resources and services.